Location: Shepherdstown, WV
(39.4326°N, 77.8042°W)
Time: 01:20:55
(UTC-04:00)

X-37B - Pass Details

Date: 23 June 2021
Orbit: 383 x 392 km, 45.0° (Epoch: 01 July)

Event Time Altitude Azimuth Distance (km) Brightness Sun altitude
Rises 22:39:03 0° 253° (WSW) 2,249 4.7 -17.5°
Reaches altitude 10° 22:41:08 10° 257° (WSW) 1,397 3.7 -17.8°
Maximum altitude 22:44:14 62° 339° (NNW) 435 1.0 -18.1°
Enters shadow 22:47:05 12° 60° (ENE) 1,285 3.1 -18.4°
